Location: Huppendorf
(49.9333°N, 11.1500°E)
Time: 21:44:46
(UTC+00:00)

STARLINK-1062 - Pass Details

Date: 27 February 2020
Orbit: 548 x 551 km, 53.0° (Epoch: 29 March)

Event Time Altitude Azimuth Distance (km) Brightness Sun altitude
Rises 19:15:56 0° 253° (WSW) 2,712 8.1 -23.5°
Reaches altitude 10° 19:18:10 10° 255° (WSW) 1,820 7.0 -23.9°
Enters shadow 19:21:56 70° 288° (WNW) 588 3.8 -24.5°
